www.pogodaiklimat.ru

Погода и климат >> Архив погоды >> Россия >> Краснодарский край >> Белореченск


ПОГОДА в Белореченске

  • Прогноз погоды в Белореченске
  • Монитор погоды в Белореченске

АРХИВ ПОГОДЫ в Белореченске

Время (UTC), дата Ветер
(напр.,м/с)
 
Видим.   Явления Облачность Т
(С)
Тd
(С)
f
(%)
Тe
(С)
Тes
(С)
Комфортность P
(гПа)
Po
(гПа)
Тmin
(С)
Tmax
(С)
R
(мм)
R24
(мм)
S
(см)
00 20.03 СВ 2 10 км ясно +3.9 +1.3 83 +1 +1 1022.2 1005.5
03 20.03 В 2 10 км ясно +1.7 +0.1 89 -2 -2 1022.3 1005.5 +1.7
06 20.03 СВ 1 1000 м в посл. час туман 8/8 300 м
[St]
+4.7 +2.0 83 +3 +5 1022.4 1005.8 +0.8
09 20.03 СВ 2 20 км ясно +12.7 +3.2 52 +12 +24 опасность
простуды
1020.9 1004.8
12 20.03 СВ 4 20 км ясно +16.1 +1.9 38 +16 +20 1019.7 1003.8
15 20.03 С 4 10 км ясно +15.1 +2.5 43 +14 +14 1019.6 1003.6 +16.8
18 20.03 С 2 10 км ясно +9.0 +2.9 66 +8 +8 1021.3 1005.0
21 20.03 штиль 0 10 км ясно +4.3 +2.0 85 +3 +3 1021.7 1005.1
00 21.03 штиль 0 10 км ясно +3.7 +1.9 88 +3 +3 1022.2 1005.5
03 21.03 штиль 0 10 км ясно +3.0 +1.5 90 +2 +2 1023.2 1006.5 +2.8
06 21.03 З 2 10 км 8/3 600 м
[Cu hum Ac trans]
+7.8 +4.5 80 +6 +8 1024.2 1007.8
09 21.03 З 4 10 км 10/10 600 м
[Sc diur, vesp]
+10.7 +3.9 63 +8 +8 1024.3 1008.0
12 21.03 З 4 20 км 9/9 1000 м
[Sc diur, vesp]
+12.8 +1.9 47 +11 +12 1023.4 1007.2
15 21.03 ЮЗ 3 20 км 9/8 1000 м
[Sc diur, vesp Ac cuf]
+11.4 +1.3 50 +10 +10 1023.6 1007.4 +13.7
18 21.03 З 3 10 км слаб. ливневой дождь 10/10 600 м
[Cb cap]
+9.2 +2.0 61 +7 +7 1025.3 1008.9
21 21.03 З 3 10 км слаб. ливневой дождь 10/10 300 м
[Cb cap]
+7.2 +4.4 82 +4 +4 1025.7 1009.2
00 22.03 ЮЗ 2 10 км {ливн. осадки} 9/6 1000 м
[Sc diur, vesp Ac As]
+7.0 +3.0 76 +5 +5 1025.1 1008.6
03 22.03 ЮЗ 3 10 км 10/0
[Ac As]
+6.6 +3.2 79 +4 +4 1024.3 1007.8 +6.6 0.0
06 22.03 З 3 20 км 1/1 1000 м
[Sc]
+9.0 +1.4 59 +7 +11 1024.2 1007.8 +6.5
09 22.03 З 5
{10}
20 км 8/8 1000 м
[Cu med, cong Ci fib]
+11.3 -1.4 41 +9 +10 1023.4 1007.2
12 22.03 З 5-10
{13}
20 км 8/3 1000 м
[Cu med, cong Ac As Ci fib]
+11.4 -0.6 43 +9 +11 1021.9 1005.7
15 22.03 З 3
{11}
20 км 10/8 600 м
[Sc Ac As]
+9.4 -1.6 46 +8 +8 1021.2 1004.8 +12.2
18 22.03 ЮЗ 3 10 км 10/0
[Ac As]
+8.1 +0.1 57 +6 +6 1021.1 1004.7
21 22.03 ЮЗ 5-10
{12}
10 км 9/6 1000 м
[Sc Ac As Ci fib]
+7.7 +0.4 60 +4 +4 1018.1 1001.8
00 23.03 Ю 5-11
{15}
10 км 10/8 600 м
[Sc Ac As]
+8.0 -1.5 51 +5 +5 1015.1 998.8
03 23.03 З 3
{15}
4000 м ливневой дождь 10/10 300 м
[Cb cap]
+0.9 -0.2 92 -4 -4 1016.7 1000.0 +0.9 3
06 23.03 ЮЗ 3 1000 м ливневой снег [диам. отлож. мокр. снега 22 мм] 10/10 300 м
[Cb cap]
+0.4 -0.5 94 -4 -4 1016.9 1000.1 +0.2
09 23.03 ЮЗ 2 20 км {ливн. осадки} [диам. отлож. мокр. снега 22 мм] 10/9 300 м
[Sc diur, vesp Ac As]
+1.6 0.0 89 -2 -1 1015.8 999.1
12 23.03 Ю 2 20 км {ливн. осадки} 9/3 600 м
[Sc diur, vesp Ac As Ci]
+3.7 +0.3 78 +1 +4 1014.8 998.3
15 23.03 Ю 2 10 км слаб. ливневой дождь 10/8 300 м
[Cb cap Ac As]
+2.3 -0.3 83 -1 -1 1015.8 999.2 +4.5 16
18 23.03 Ю 2 10 км слаб. ливневой дождь 10/8 300 м
[Cb cap Ac As]
+1.2 +0.1 92 -2 -2 1017.0 1000.3
21 23.03 ЮЗ 2 10 км {ливн. осадки} 3/1 1000 м
[Sc diur, vesp Ac cast]
+0.9 -0.6 90 -3 -3 1017.6 1000.8
00 24.03 ЮЗ 2 10 км {ливн. осадки} ясно +0.7 -1.8 83 -3 -3 1017.3 1000.5
03 24.03 ЮЗ 3 10 км 9/0
[Ac As Ci sp]
+0.1 -2.6 82 -4 -4 1017.7 1000.9 +0.1 3 0
06 24.03 ЮЗ 2 2000 м слаб. ливневой снег 10/8 600 м
[Cb cap Ac As]
+0.9 -1.3 85 -3 -2 1018.8 1002.0 -0.1
09 24.03 ЮЗ 3 20 км {ливн. осадки} 10/8 600 м
[Sc diur, vesp Ac As]
+5.3 -1.6 61 +2 +3 1017.9 1001.4
12 24.03 З 4 20 км {ливн. осадки} 9/8 1000 м
[Sc diur, vesp Ac trans]
+5.6 -0.1 67 +2 +3 1017.5 1001.0
15 24.03 ЮЗ 3 20 км 10/8 600 м
[Cb cap Ac As]
+3.7 -0.6 73 0 0 1018.3 1001.7 +6.2 0.8
18 24.03 ЮЗ 2 10 км 10/8 600 м
[Sc diur, vesp Ac As]
+3.5 -2.0 67 +1 +1 1019.5 1002.9
21 24.03 ЮЗ 1 10 км 3/0
[Ac trans]
+1.6 -1.5 80 -0 -0 1019.9 1003.2
00 25.03 Ю 1 10 км 3/0
[Ac trans]
+1.1 -3.0 74 -1 -1 1019.6 1002.8
03 25.03 штиль 0 10 км ясно -1.0 -3.6 82 -2 -2 1018.9 1002.0 -1.0
06 25.03 штиль 0 20 км ясно +5.4 -1.4 62 +5 +12 1018.5 1002.0
09 25.03 В 1 20 км 1/1 1000 м
[Cu hum]
+9.5 -4.8 36 +10 +23 опасность
простуды
1017.5 1001.2
12 25.03 СВ 1 20 км 3/3 1000 м
[Cu hum]
+11.1 -3.9 35 +11 +18 1016.2 1000.1
15 25.03 С 3 20 км ясно +10.1 -3.3 39 +9 +9 1015.6 999.4 +11.5
18 25.03 В 1 10 км ясно +6.1 -2.4 54 +6 +6 1016.2 999.7
21 25.03 В 1 10 км ясно +2.5 -1.4 75 +1 +1 1016.0 999.4
00 26.03 штиль 0 10 км ясно -0.3 -2.1 88 -2 -2 1015.7 998.9
03 26.03 В 1 10 км ясно -1.4 -2.4 93 -4 -4 1015.9 999.0 -1.6
06 26.03 ЮЗ 1 10 км ясно +6.6 -0.4 61 +6 +12 1015.2 998.8 -1.8
09 26.03 СЗ 2 20 км ясно +12.2 +0.1 43 +12 +24 опасность
простуды
1014.2 998.2
12 26.03 В 2 20 км ясно +14.2 -3.6 29 +14 +22 1012.8 996.9
15 26.03 С 2 20 км ясно +13.8 -1.2 35 +14 +14 1012.4 996.5 +14.9
18 26.03 штиль 0 10 км ясно +6.4 +0.9 68 +6 +6 1013.8 997.4

 

Местоположение метеостанции Белореченск (Краснодарский край, Россия): широта 44.75 долгота 39.90 высота над уровнем моря 139 м.

В архиве по умолчанию представлена погода в Белореченске за последнюю неделю. Архивные данные за месяц целиком и за предыдущие месяцы, начиная с января 2011 года, Вы можете получить, выбрав интересующий диапазон дат из раскрывающегося списка и нажав кнопку "Ввод!".


*Определитесь, кто Вы:
робот инопланетянин человек

Внимание! Время в таблицах - всемирное. Для получения местного времени необходимо прибавить поправку, которая равна 3 ч.

Смотрите также архив погоды в соседних городах и на ближайших метеорологических станциях:

Погода в Майкопе (Адыгея, Россия) (20 км)
Погода в Шунтуке (Адыгея, Россия) (36 км)
Погода в Дондуковской (Адыгея, Россия) (38 км)
Погода в Усть-Лабинске (Краснодарский край, Россия) (55 км)
Погода в Горячем Ключе (Краснодарский край, Россия) (65 км)
Погода в Лабинске (Краснодарский край, Россия) (68 км)
Погода в Даховской (Адыгея, Россия) (68 км)
Погода в Горном (Краснодарский край, Россия) (72 км)
Погода в Краснодаре (Краснодарский край, Россия) (76 км)
Погода в Гузерипле (Адыгея, Россия) (85 км)

Пояснения к столбцам:

Ветер - указаны скорость ветра в м/с - средняя за 10 мин, порывы в срок и между сроками (в фигурных скобках) и направление, откуда дует ветер: С - северный, СВ - северо-восточный, В - восточный, ЮВ - юго-восточный, Ю - южный, ЮЗ - юго-западный, З - западный, СЗ - северо-западный.
Видимость - горизонтальная дальность видимости в метрах или километрах. При видимости от 1 до 10 км при отсутствии осадков обычно наблюдается дымка, при ухудшении видимости до 1 км и менее - туман. В сухую погоду видимость может ухудшаться дымом, пылью или мглою.
Явления - указаны атмосферные явления, наблюдавшиеся в срок или в последний час перед сроком; фигурными скобками обозначены явления, наблюдавшиеся между сроками (за 1-3 часа до срока); квадратными скобками обозначены град или гололедные отложения с указанием их диаметра в мм.
Облачность - указаны через наклонную черту общая и нижняя облачность в баллах и высота нижней границы облаков в метрах; квадратными скобками обозначены формы облаков: Ci - перистые, Cs - перисто-слоистые, Cc - перисто-кучевые, Ac - высококучевые, As - высокослоистые, Sc - слоисто-кучевые, Ns - слоисто-дождевые, Cu - кучевые, Cb - кучево-дождевые. Подробнее классификацию облаков см. в Атласе облаков (PDF).
T - Температура воздуха - температура, измеренная на высоте 2 м над землей.
Td - Температура точки росы - температура, при понижении до которой содержащийся в воздухе водяной пар достигнет насыщения.
f - Относительная влажность воздуха - влажноcть воздуха, измеренная на высоте 2 м над землей.
Te - Эффективная температура - температура, которую ощущает одетый по сезону человек в тени. Характеристика душности погоды. При расчете учитывается влияние влажности воздуха и скорости ветра на теплоощущения человека.
Tes - Эффективная температура на солнце - температура, которую ощущает человек, с поправкой на солнечный нагрев. Характеристика знойности погоды. Зависит от высоты солнца над горизонтом, облачности и скорости ветра. Ночью, в пасмурную погоду, а также при ветре 12 м/с и более поправка равна нулю.
P - Атмосферное давление - приведенное к уровню моря атмосферное давление.
Po - Атмосферное давление - измеренное на уровне метеостанции атмосферное давление.
Tmin - Минимальная температура - минимум температуры воздуха на высоте 2 м над землей.
Tmax - Максимальная температура - максимум температуры воздуха на высоте 2 м над землей.
R - Количество осадков - Количество выпавших осадков за период времени, мм. При наведении курсора мыши на число - период времени, за который выпало указанное количество осадков.
R24 - Количество осадков - Количество выпавших осадков за 24 часа, мм.
S - Снежный покров - Высота снежного покрова, см. При наведении курсора мыши на число - состояние снежного покрова и степень покрытия местности в баллах.